| time (UTC) | temp C | wind direction | speed KPH | gust KPH | rain 1hr cm | rain 24hr cm | rain mn cm | humidity % | barometer mb |
| 20260906231704 | 17 | 134 | 0.0 | 1.6 | 0.00 | 0.00 | 0.00 | 82 | 1016.5 |
| 20260906231204 | 17 | 134 | 0.0 | 0.0 | 0.00 | 0.00 | 0.00 | 82 | 1016.6 |
| 20260906230704 | 17 | 134 | 0.0 | 1.6 | 0.00 | 0.00 | 0.00 | 82 | 1016.5 |
| 20260906230204 | 17 | 134 | 0.0 | 3.2 | 0.00 | 0.00 | 0.00 | 82 | 1016.6 |
| 20260906224705 | 17 | 134 | 0.0 | 3.2 | 0.00 | 0.00 | 0.00 | 82 | 1016.8 |
| 20260906224204 | 17 | 134 | 3.2 | 3.2 | 0.00 | 0.00 | 0.00 | 81 | 1016.8 |
| 20260906223704 | 17 | 134 | 1.6 | 3.2 | 0.00 | 0.00 | 0.00 | 81 | 1016.9 |
| 20260906220704 | 17 | 168 | 0.0 | 0.0 | 0.00 | 0.00 | 0.00 | 79 | 1017.1 |
| 20260906220204 | 17 | 168 | 0.0 | 0.0 | 0.00 | 0.00 | 0.00 | 78 | 1017.2 |
| 20260906214704 | 18 | 168 | 0.0 | 0.0 | 0.00 | 0.00 | 0.00 | 77 | 1017.2 |
| 20260906214204 | 18 | 168 | 0.0 | 0.0 | 0.00 | 0.00 | 0.00 | 77 | 1017.2 |
| 20260906213205 | 18 | 168 | 0.0 | 1.6 | 0.00 | 0.00 | 0.00 | 76 | 1017.2 |
| 20260906211704 | 18 | 168 | 0.0 | 8.0 | 0.00 | 0.00 | 0.00 | 76 | 1017.4 |
| 20260906211204 | 18 | 167 | 4.8 | 9.7 | 0.00 | 0.00 | 0.00 | 76 | 1017.3 |
| 20260906210704 | 18 | 171 | 6.4 | 12.9 | 0.00 | 0.00 | 0.00 | 76 | 1017.3 |
| 20260906204703 | 18 | 170 | 9.7 | 19.3 | 0.00 | 0.00 | 0.00 | 75 | 1017.2 |
| 20260906204203 | 18 | 167 | 8.0 | 16.1 | 0.00 | 0.00 | 0.00 | 75 | 1017.3 |
| 20260906203704 | 18 | 166 | 8.0 | 16.1 | 0.00 | 0.00 | 0.00 | 75 | 1017.3 |
| 20260906203203 | 18 | 162 | 8.0 | 16.1 | 0.00 | 0.00 | 0.00 | 75 | 1017.2 |
| 20260906201204 | 19 | 169 | 4.8 | 11.3 | 0.00 | 0.00 | 0.00 | 74 | 1017.2 |
| 20260906200704 | 19 | 163 | 8.0 | 11.3 | 0.00 | 0.00 | 0.00 | 73 | 1017.3 |
| 20260906200204 | 19 | 171 | 6.4 | 14.5 | 0.00 | 0.00 | 0.00 | 73 | 1017.4 |
| 20260906194203 | 19 | 162 | 3.2 | 12.9 | 0.00 | 0.00 | 0.00 | 72 | 1017.4 |
| 20260906193705 | 19 | 176 | 1.6 | 3.2 | 0.00 | 0.00 | 0.00 | 71 | 1017.4 |
| 20260906193204 | 20 | 176 | 1.6 | 9.7 | 0.00 | 0.00 | 0.00 | 71 | 1017.3 |
| 20260906191204 | 20 | 169 | 3.2 | 8.0 | 0.00 | 0.00 | 0.00 | 69 | 1017.4 |
| 20260906190704 | 20 | 169 | 1.6 | 8.0 | 0.00 | 0.00 | 0.00 | 69 | 1017.4 |
| 20260906190204 | 20 | 169 | 3.2 | 16.1 | 0.00 | 0.00 | 0.00 | 68 | 1017.3 |
| 20260906184204 | 21 | 167 | 9.7 | 20.9 | 0.00 | 0.00 | 0.00 | 67 | 1017.4 |
| 20260906183705 | 21 | 169 | 4.8 | 16.1 | 0.00 | 0.00 | 0.00 | 67 | 1017.4 |
| 20260906183204 | 21 | 165 | 4.8 | 19.3 | 0.00 | 0.00 | 0.00 | 66 | 1017.4 |
| 20260906181704 | 21 | 159 | 8.0 | 16.1 | 0.00 | 0.00 | 0.00 | 65 | 1017.6 |
| 20260906181205 | 21 | 169 | 11.3 | 20.9 | 0.00 | 0.00 | 0.00 | 64 | 1017.6 |
| 20260906180204 | 22 | 161 | 9.7 | 16.1 | 0.00 | 0.00 | 0.00 | 63 | 1017.6 |
| 20260906174204 | 22 | 165 | 12.9 | 20.9 | 0.00 | 0.00 | 0.00 | 62 | 1017.6 |
| 20260906173704 | 22 | 167 | 11.3 | 20.9 | 0.00 | 0.00 | 0.00 | 62 | 1017.7 |
| 20260906173203 | 22 | 166 | 9.7 | 20.9 | 0.00 | 0.00 | 0.00 | 61 | 1017.8 |
| 20260906171704 | 22 | 181 | 9.7 | 20.9 | 0.00 | 0.00 | 0.00 | 62 | 1017.9 |
| 20260906171203 | 22 | 171 | 8.0 | 22.5 | 0.00 | 0.00 | 0.00 | 62 | 1017.9 |
| 20260906170704 | 22 | 165 | 9.7 | 20.9 | 0.00 | 0.00 | 0.00 | 62 | 1017.9 |
| 20260906170204 | 22 | 165 | 11.3 | 20.9 | 0.00 | 0.00 | 0.00 | 62 | 1018.0 |
| 20260906164704 | 23 | 169 | 8.0 | 16.1 | 0.00 | 0.00 | 0.00 | 61 | 1018.4 |
| 20260906164206 | 23 | 161 | 11.3 | 20.9 | 0.00 | 0.00 | 0.00 | 61 | 1018.5 |
| 20260906163704 | 23 | 169 | 11.3 | 20.9 | 0.00 | 0.00 | 0.00 | 60 | 1018.5 |
| 20260906163203 | 23 | 162 | 16.1 | 24.1 | 0.00 | 0.00 | 0.00 | 61 | 1018.6 |
| 20260906161704 | 24 | 158 | 11.3 | 20.9 | 0.00 | 0.00 | 0.00 | 58 | 1018.7 |
| 20260906161205 | 24 | 162 | 12.9 | 24.1 | 0.00 | 0.00 | 0.00 | 56 | 1018.6 |
| 20260906160703 | 24 | 164 | 14.5 | 27.4 | 0.00 | 0.00 | 0.00 | 55 | 1018.7 |
| 20260906154204 | 25 | 176 | 11.3 | 22.5 | 0.00 | 0.00 | 0.00 | 51 | 1018.7 |
| 20260906153703 | 25 | 184 | 14.5 | 22.5 | 0.00 | 0.00 | 0.00 | 51 | 1018.8 |
| 20260906153203 | 25 | 162 | 24.1 | 32.2 | 0.00 | 0.00 | 0.00 | 50 | 1018.8 |
| 20260906151705 | 25 | 163 | 14.5 | 20.9 | 0.00 | 0.00 | 0.00 | 50 | 1018.8 |
| 20260906150204 | 25 | 168 | 11.3 | 27.4 | 0.00 | 0.00 | 0.00 | 47 | 1018.8 |
| 20260906144703 | 25 | 162 | 9.7 | 20.9 | 0.00 | 0.00 | 0.00 | 46 | 1018.8 |
| 20260906143704 | 26 | 164 | 12.9 | 29.0 | 0.00 | 0.00 | 0.00 | 48 | 1018.9 |
| 20260906143204 | 26 | 167 | 12.9 | 25.7 | 0.00 | 0.00 | 0.00 | 46 | 1019.0 |
| 20260906141704 | 27 | 178 | 14.5 | 22.5 | 0.00 | 0.00 | 0.00 | 44 | 1019.1 |
| 20260906141203 | 27 | 183 | 12.9 | 20.9 | 0.00 | 0.00 | 0.00 | 42 | 1019.2 |
| 20260906140704 | 27 | 172 | 9.7 | 24.1 | 0.00 | 0.00 | 0.00 | 42 | 1019.2 |
| 20260906140203 | 27 | 164 | 12.9 | 25.7 | 0.00 | 0.00 | 0.00 | 43 | 1019.2 |
| 20260906134704 | 28 | 166 | 9.7 | 20.9 | 0.00 | 0.00 | 0.00 | 38 | 1019.3 |
| 20260906134205 | 28 | 162 | 17.7 | 37.0 | 0.00 | 0.00 | 0.00 | 36 | 1019.4 |
| 20260906133704 | 28 | 167 | 19.3 | 24.1 | 0.00 | 0.00 | 0.00 | 39 | 1019.4 |
| 20260906133206 | 28 | 165 | 9.7 | 22.5 | 0.00 | 0.00 | 0.00 | 40 | 1019.4 |
| 20260906131703 | 28 | 179 | 16.1 | 25.7 | 0.00 | 0.00 | 0.00 | 39 | 1019.5 |
| 20260906131204 | 27 | 163 | 11.3 | 24.1 | 0.00 | 0.00 | 0.00 | 42 | 1019.6 |
| 20260906130704 | 27 | 182 | 16.1 | 24.1 | 0.00 | 0.00 | 0.00 | 41 | 1019.7 |
| 20260906124704 | 27 | 179 | 19.3 | 27.4 | 0.00 | 0.00 | 0.00 | 44 | 1020.2 |
| 20260906124204 | 27 | 166 | 11.3 | 22.5 | 0.00 | 0.00 | 0.00 | 46 | 1020.2 |
| 20260906123703 | 27 | 164 | 17.7 | 27.4 | 0.00 | 0.00 | 0.00 | 45 | 1020.2 |
| 20260906123204 | 27 | 168 | 14.5 | 27.4 | 0.00 | 0.00 | 0.00 | 46 | 1020.4 |
| 20260906121703 | 27 | 174 | 19.3 | 27.4 | 0.00 | 0.00 | 0.00 | 47 | 1020.5 |
| 20260906121205 | 27 | 175 | 8.0 | 20.9 | 0.00 | 0.00 | 0.00 | 50 | 1020.5 |
| 20260906120704 | 26 | 160 | 14.5 | 27.4 | 0.00 | 0.00 | 0.00 | 50 | 1020.6 |
| 20260906120204 | 26 | 177 | 12.9 | 27.4 | 0.00 | 0.00 | 0.00 | 50 | 1020.8 |
| 20260906114704 | 24 | 173 | 11.3 | 20.9 | 0.00 | 0.00 | 0.00 | 55 | 1020.8 |
| 20260906113204 | 25 | 167 | 12.9 | 29.0 | 0.00 | 0.00 | 0.00 | 53 | 1020.9 |
| 20260906111704 | 25 | 173 | 14.5 | 25.7 | 0.00 | 0.00 | 0.00 | 52 | 1021.0 |
| 20260906111203 | 25 | 168 | 14.5 | 29.0 | 0.00 | 0.00 | 0.00 | 53 | 1021.1 |
| 20260906110704 | 25 | 162 | 14.5 | 29.0 | 0.00 | 0.00 | 0.00 | 54 | 1021.1 |
| 20260906110204 | 25 | 183 | 9.7 | 29.0 | 0.00 | 0.00 | 0.00 | 53 | 1021.1 |
| 20260906104703 | 25 | 166 | 14.5 | 27.4 | 0.00 | 0.00 | 0.00 | 55 | 1021.4 |
| 20260906104206 | 24 | 162 | 20.9 | 33.8 | 0.00 | 0.00 | 0.00 | 55 | 1021.4 |
| 20260906103704 | 24 | 170 | 16.1 | 35.4 | 0.00 | 0.00 | 0.00 | 56 | 1021.5 |
| 20260906103204 | 23 | 175 | 9.7 | 24.1 | 0.00 | 0.00 | 0.00 | 60 | 1021.5 |
| 20260906101705 | 23 | 174 | 14.5 | 27.4 | 0.00 | 0.00 | 0.00 | 61 | 1021.6 |
| 20260906100704 | 22 | 178 | 14.5 | 27.4 | 0.00 | 0.00 | 0.00 | 66 | 1021.7 |
| 20260906100204 | 22 | 171 | 12.9 | 27.4 | 0.00 | 0.00 | 0.00 | 65 | 1021.8 |
| 20260906094704 | 22 | 163 | 12.9 | 20.9 | 0.00 | 0.00 | 0.00 | 69 | 1021.8 |
| 20260906094204 | 21 | 179 | 9.7 | 20.9 | 0.00 | 0.00 | 0.00 | 70 | 1021.8 |
| 20260906093704 | 21 | 172 | 11.3 | 24.1 | 0.00 | 0.00 | 0.00 | 70 | 1021.8 |
| 20260906093205 | 21 | 173 | 9.7 | 20.9 | 0.00 | 0.00 | 0.00 | 71 | 1021.9 |
| 20260906091204 | 20 | 166 | 14.5 | 20.9 | 0.00 | 0.00 | 0.00 | 75 | 1022.1 |
| 20260906084204 | 18 | 166 | 16.1 | 25.7 | 0.00 | 0.00 | 0.00 | 80 | 1022.3 |
| 20260906083704 | 18 | 163 | 16.1 | 22.5 | 0.00 | 0.00 | 0.00 | 81 | 1022.3 |
| 20260906081704 | 16 | 161 | 9.7 | 20.9 | 0.00 | 0.00 | 0.00 | 85 | 1022.2 |
| 20260906080705 | 16 | 163 | 11.3 | 20.9 | 0.00 | 0.00 | 0.00 | 86 | 1022.2 |
| 20260906080204 | 16 | 161 | 11.3 | 20.9 | 0.00 | 0.00 | 0.00 | 86 | 1022.3 |
| 20260906074704 | 15 | 167 | 8.0 | 12.9 | 0.00 | 0.00 | 0.00 | 87 | 1022.5 |
| 20260906074204 | 15 | 160 | 6.4 | 11.3 | 0.00 | 0.00 | 0.00 | 87 | 1022.6 |
| 20260906073703 | 15 | 158 | 9.7 | 20.9 | 0.00 | 0.00 | 0.00 | 88 | 1022.6 |
| 20260906073205 | 15 | 158 | 9.7 | 14.5 | 0.00 | 0.00 | 0.00 | 87 | 1022.7 |
| 20260906071205 | 15 | 167 | 4.8 | 9.7 | 0.00 | 0.00 | 0.00 | 87 | 1022.6 |
| 20260906070204 | 14 | 162 | 6.4 | 11.3 | 0.00 | 0.00 | 0.00 | 87 | 1022.7 |
| 20260906064705 | 14 | 169 | 3.2 | 9.7 | 0.00 | 0.00 | 0.00 | 87 | 1022.9 |
| 20260906064204 | 13 | 166 | 3.2 | 9.7 | 0.00 | 0.00 | 0.00 | 88 | 1022.9 |
| 20260906063704 | 13 | 164 | 4.8 | 9.7 | 0.00 | 0.00 | 0.00 | 88 | 1022.9 |
| 20260906063203 | 13 | 164 | 3.2 | 8.0 | 0.00 | 0.00 | 0.00 | 88 | 1022.9 |
| 20260906060704 | 13 | 171 | 1.6 | 3.2 | 0.00 | 0.00 | 0.00 | 87 | 1023.2 |
| 20260906060204 | 13 | 171 | 0.0 | 8.0 | 0.00 | 0.00 | 0.00 | 87 | 1023.2 |
| 20260906054703 | 13 | 171 | 0.0 | 3.2 | 0.00 | 0.00 | 0.00 | 87 | 1023.2 |
| 20260906054205 | 13 | 171 | 0.0 | 0.0 | 0.00 | 0.00 | 0.00 | 87 | 1023.2 |
| 20260906053704 | 13 | 171 | 0.0 | 3.2 | 0.00 | 0.00 | 0.00 | 87 | 1023.3 |
| 20260906053204 | 13 | 171 | 0.0 | 0.0 | 0.00 | 0.00 | 0.00 | 87 | 1023.3 |
| 20260906051704 | 13 | 171 | 0.0 | 3.2 | 0.00 | 0.00 | 0.00 | 87 | 1023.4 |
| 20260906051204 | 13 | 171 | 1.6 | 8.0 | 0.00 | 0.00 | 0.00 | 87 | 1023.4 |
| 20260906050703 | 13 | 171 | 1.6 | 8.0 | 0.00 | 0.00 | 0.00 | 87 | 1023.3 |
| 20260906050205 | 13 | 171 | 3.2 | 9.7 | 0.00 | 0.00 | 0.00 | 87 | 1023.4 |
| 20260906044205 | 13 | 172 | 3.2 | 9.7 | 0.00 | 0.00 | 0.00 | 87 | 1023.4 |
| 20260906043704 | 13 | 173 | 3.2 | 9.7 | 0.00 | 0.00 | 0.00 | 87 | 1023.5 |
| 20260906043204 | 13 | 180 | 1.6 | 4.8 | 0.00 | 0.00 | 0.00 | 87 | 1023.5 |
| 20260906041703 | 13 | 181 | 0.0 | 0.0 | 0.00 | 0.00 | 0.00 | 87 | 1023.6 |
| 20260906041204 | 13 | 181 | 0.0 | 0.0 | 0.00 | 0.00 | 0.00 | 87 | 1023.6 |
| 20260906040703 | 13 | 181 | 0.0 | 0.0 | 0.00 | 0.00 | 0.00 | 87 | 1023.6 |
| 20260906040204 | 13 | 181 | 0.0 | 0.0 | 0.00 | 0.00 | 0.00 | 87 | 1023.5 |
| 20260906033704 | 13 | 181 | 0.0 | 0.0 | 0.00 | 0.00 | 0.00 | 87 | 1023.9 |
| 20260906033203 | 13 | 181 | 0.0 | 0.0 | 0.00 | 0.00 | 0.00 | 86 | 1023.9 |
| 20260906031704 | 13 | 181 | 0.0 | 0.0 | 0.00 | 0.00 | 0.00 | 87 | 1024.1 |
| 20260906031203 | 13 | 181 | 0.0 | 0.0 | 0.00 | 0.00 | 0.00 | 87 | 1024.0 |
| 20260906030704 | 13 | 181 | 0.0 | 0.0 | 0.00 | 0.00 | 0.00 | 87 | 1024.1 |
| 20260906024704 | 13 | 181 | 0.0 | 0.0 | 0.00 | 0.00 | 0.00 | 87 | 1023.9 |
| 20260906024204 | 13 | 181 | 0.0 | 0.0 | 0.00 | 0.00 | 0.00 | 87 | 1024.0 |
| 20260906023704 | 13 | 181 | 0.0 | 0.0 | 0.00 | 0.00 | 0.00 | 87 | 1024.0 |
| 20260906023204 | 13 | 181 | 0.0 | 0.0 | 0.00 | 0.00 | 0.00 | 87 | 1024.0 |
| 20260906021704 | 13 | 184 | 0.0 | 0.0 | 0.00 | 0.00 | 0.00 | 87 | 1024.4 |
| 20260906021203 | 13 | 184 | 0.0 | 0.0 | 0.00 | 0.00 | 0.00 | 87 | 1024.5 |
| 20260906020704 | 13 | 184 | 0.0 | 0.0 | 0.00 | 0.00 | 0.00 | 86 | 1024.6 |
| 20260906014703 | 13 | 184 | 0.0 | 0.0 | 0.00 | 0.00 | 0.00 | 85 | 1024.8 |
| 20260906014203 | 13 | 184 | 0.0 | 0.0 | 0.00 | 0.00 | 0.00 | 86 | 1024.8 |
| 20260906013704 | 13 | 184 | 0.0 | 0.0 | 0.00 | 0.00 | 0.00 | 86 | 1024.8 |
| 20260906013203 | 13 | 184 | 0.0 | 0.0 | 0.00 | 0.00 | 0.00 | 85 | 1024.9 |
| 20260906011705 | 13 | 184 | 0.0 | 1.6 | 0.00 | 0.00 | 0.00 | 85 | 1025.0 |
| 20260906011203 | 13 | 184 | 0.0 | 1.6 | 0.00 | 0.00 | 0.00 | 85 | 1025.1 |
| 20260906010704 | 13 | 184 | 0.0 | 0.0 | 0.00 | 0.00 | 0.00 | 85 | 1025.2 |
| 20260906010204 | 13 | 184 | 0.0 | 3.2 | 0.00 | 0.00 | 0.00 | 85 | 1025.2 |
| 20260906004204 | 13 | 184 | 0.0 | 0.0 | 0.00 | 0.00 | 0.00 | 85 | 1025.0 |
| 20260906003704 | 13 | 184 | 0.0 | 0.0 | 0.00 | 0.00 | 0.00 | 84 | 1025.1 |
| 20260906001705 | 13 | 184 | 0.0 | 0.0 | 0.00 | 0.00 | 0.00 | 84 | 1025.3 |
| 20260906001204 | 13 | 184 | 0.0 | 0.0 | 0.00 | 0.00 | 0.00 | 84 | 1025.4 |
| 20260906000704 | 13 | 184 | 0.0 | 0.0 | 0.00 | 0.00 | 0.00 | 84 | 1025.6 |
| 20260906000204 | 13 | 184 | 0.0 | 0.0 | 0.00 | 0.00 | 0.00 | 84 | 1025.5 |
| 20260905234204 | 13 | 184 | 0.0 | 0.0 | 0.00 | 0.00 | 0.00 | 83 | 1025.6 |